Weather History for Elkins, WV

Change the Weather History Date:

Thursday, November 8, 2012

  Actual Average Record
Temperature  
Mean Temperature 31 °F 44 °F  
Max Temperature 43 °F 57 °F 75 °F (1916)
Min Temperature 19 °F 32 °F 10 °F (1960)
Degree Days  
Heating Degree Days 34 21  
Month to date heating degree days 240 157  
Since 1 July heating degree days 801 748  
Cooling Degree Days 0 0  
Month to date cooling degree days 0 0  
Year to date cooling degree days 675 475  
Moisture  
Dew Point 21 °F    
Average Humidity 66    
Maximum Humidity 92    
Minimum Humidity 39    
Precipitation  
Precipitation 0.00 in 0.10 in 1.62 in (1996)
Month to date precipitation 0.01 0.88  
Year to date precipitation 41.67 40.17  
Snow  
Snow 0.00 in - - ()
Month to date snowfall 0.0  
Since 1 September snowfall 18.0  
Snow Depth 0.00 in    
Sea Level Pressure  
Sea Level Pressure 30.17 in    
Wind  
Wind Speed 2 mph (WNW)    
Max Wind Speed 14 mph    
Max Gust Speed 17 mph    
Visibility 8 miles    
Events Rain    
T = Trace of Precipitation, MM = Missing Value Source: NWS Daily Summary

Daily Weather History Graph

Daily Weather History Graph

Search for Another Location

Airport:

Trip Planner

Search our weather history database for the weather conditions in past years. The results will help you decide how hot, cold, wet, or windy it might be!

Date:

Astronomy

Nov. 08, 2012 Rise Set
Actual Time 6:54 AM EST 5:11 PM EST
Civil Twilight 6:26 AM EST 5:39 PM EST
Nautical Twilight 5:54 AM EST 6:11 PM EST
Astronomical Twilight 5:23 AM EST 6:42 PM EST
Moon 12:51 AM EST (11/8) 1:48 PM EST (11/8)
Length of Visible Light 11h 12m
Length of Day
10h 16m
Waning Crescent, 33% of the Moon is Illuminated
Nov 8
Waning Crescent
Nov 13
New
Nov 20
First Quarter
Nov 28
Full
Dec 6
Last Quarter

Hourly Weather History & Observations

Time (EST) Temp. Windchill Dew Point Humidity Pressure Visibility Wind Dir Wind Speed Gust Speed Precip Events Conditions
12:51 AM 25.0 °F - 23.0 °F 92% 30.08 in 5.0 mi Calm Calm - N/A   Clear
1:51 AM 25.0 °F - 21.9 °F 88% 30.08 in 5.0 mi Calm Calm - N/A   Clear
2:51 AM 25.0 °F - 21.0 °F 85% 30.09 in 6.0 mi Calm Calm - N/A   Clear
3:07 AM 24.8 °F - 21.2 °F 86% 30.02 in 5.0 mi Calm Calm - N/A   Partly Cloudy
3:51 AM 23.0 °F - 19.9 °F 88% 30.11 in 5.0 mi Calm Calm - N/A   Partly Cloudy
4:51 AM 23.0 °F - 19.9 °F 88% 30.12 in 5.0 mi Calm Calm - N/A   Clear
5:51 AM 21.0 °F - 19.0 °F 92% 30.14 in 6.0 mi Calm Calm - N/A   Clear
6:51 AM 21.0 °F - 17.1 °F 85% 30.16 in 6.0 mi Calm Calm - N/A   Clear
7:51 AM 21.0 °F - 18.0 °F 88% 30.19 in 5.0 mi Calm Calm - N/A   Clear
8:51 AM 28.9 °F - 25.0 °F 85% 30.20 in 6.0 mi Calm Calm - N/A   Clear
9:51 AM 36.0 °F - 25.0 °F 64% 30.20 in 10.0 mi Calm Calm - N/A   Clear
10:51 AM 39.0 °F 34.8 °F 21.0 °F 49% 30.20 in 10.0 mi WNW 5.8 mph - 0.00 in Rain Light Rain
11:51 AM 39.9 °F 32.5 °F 21.0 °F 47% 30.20 in 10.0 mi WNW 12.7 mph 16.1 mph N/A   Clear
12:51 PM 41.0 °F 35.8 °F 19.0 °F 41% 30.19 in 10.0 mi West 8.1 mph - N/A   Clear
1:51 PM 42.1 °F 36.1 °F 19.0 °F 40% 30.17 in 10.0 mi WSW 10.4 mph - N/A   Clear
2:51 PM 42.1 °F 36.6 °F 19.9 °F 41% 30.16 in 10.0 mi West 9.2 mph - N/A   Clear
3:51 PM 42.1 °F 37.7 °F 19.9 °F 41% 30.17 in 10.0 mi WNW 6.9 mph - N/A   Clear
4:51 PM 39.9 °F 36.7 °F 21.0 °F 47% 30.19 in 10.0 mi WNW 4.6 mph - N/A   Clear
5:51 PM 36.0 °F - 21.0 °F 55% 30.22 in 10.0 mi Calm Calm - N/A   Clear
6:51 PM 30.0 °F - 21.0 °F 69% 30.25 in 10.0 mi Calm Calm - N/A   Clear
7:51 PM 28.0 °F - 21.9 °F 78% 30.24 in 10.0 mi Calm Calm - N/A   Clear
8:51 PM 27.0 °F - 21.0 °F 78% 30.25 in 10.0 mi Calm Calm - N/A   Clear
9:51 PM 25.0 °F - 21.0 °F 85% 30.24 in 10.0 mi Calm Calm - N/A   Clear
10:51 PM 24.1 °F - 21.0 °F 88% 30.24 in 9.0 mi Calm Calm - N/A   Clear
11:51 PM 23.0 °F - 19.9 °F 88% 30.24 in 9.0 mi Calm Calm - N/A   Clear